STARLINK-2704 (48643 NORAD) Tracking and Keplerian Element Data

This shows tracking and keplerian element data for the satellite.

Feedback or suggestion? Click here.




ElementValue
Catalog48643
NameSTARLINK-2704
Epoch Orbit2244
Epoch Day287.98974271
Epoch Year2021
RAAN134.3619
Inclination53.0538
Eccentricity0.0002397
Argument of Perigee81.8455
Mean Anonmoly278.2805
Mean Motion15.06387176
Decay Rate-2.79E-05
L11 48643U 21044F 21287.98974271 -.00002790 00000-0 -16853-3 0 9999
L22 48643 53.0538 134.3619 0002397 81.8455 278.2805 15.06387176 22448

Live tracking and technical data element details for STARLINK-2704 (NORAD 48643). STARLINK-2704 can be tracked NOW for your location showing map with azimuth and elevation plus other details from your city location.

Track the satellite on the map from your city or location and see movement details for azimuth, elevation, latitude, longitude, range, height, and movement on the map or in text.







IsCatalogInMostPopularTable: catalog: 48643, numindb: 34
Update: records affected: 1



GetName: 48643 STARLINK-2704

Hit Count: updated at: Tue, 19 Oct 2021 09:38:02 GMT